Mexico City Airport, Mexico

5:52 PM CDT on August 18, 2017 (GMT -0500)
Lic Benito Juarez International

Weather History for MMMX - October, 2012

Change the Weather History Date:

Monday, October 22, 2012

  Actual Average Record
Temperature  
Mean Temperature 62 °F -  
Max Temperature 78 °F 70 °F 80 °F (2004)
Min Temperature 46 °F 46 °F 35 °F (2011)
Degree Days  
Heating Degree Days 3    
Growing Degree Days 12 (Base 50)    
Moisture  
Dew Point 46 °F    
Average Humidity 59    
Maximum Humidity 94    
Minimum Humidity 23    
Precipitation  
Precipitation 0.00 in - - ()
Sea Level Pressure  
Sea Level Pressure 30.16 in    
Wind  
Wind Speed 4 mph ()    
Max Wind Speed 16 mph    
Max Gust Speed 28 mph    
Visibility 8.0 miles    
Events      
Averages and records for this station are not official NWS values.
T = Trace of Precipitation, MM = Missing Value Source: Averaged Metar Reports

Daily Weather History Graph

Daily Weather History Graph

Search for Another Location

Airport or City:

Trip Planner

Search our weather history database for the weather conditions in past years. The results will help you decide how hot, cold, wet, or windy it might be!

Date:

Astronomy

Oct. 22, 2012 Rise Set
Actual Time 7:33 AM CDT 7:07 PM CDT
Civil Twilight 7:11 AM CDT 7:30 PM CDT
Nautical Twilight 6:45 AM CDT 7:55 PM CDT
Astronomical Twilight 6:19 AM CDT 8:21 PM CDT
Moon 2:27 PM CDT (10/22) 1:16 AM CDT (10/22)
Length of Visible Light 12h 19m
Length of Day
11h 34m
First Quarter, 56% of the Moon is Illuminated
Oct 22
First Quarter
Oct 29
Full
Nov 6
Last Quarter
Nov 13
New
Nov 20
First Quarter

Hourly Weather History & Observations

Time (CDT) Temp. Windchill Dew Point Humidity Pressure Visibility Wind Dir Wind Speed Gust Speed Precip Events Conditions
12:52 AM 59.0 °F - 44.6 °F 59% 29.81 in 12.0 mi East 4.6 mph - N/A   Clear
1:54 AM 57.2 °F - 46.4 °F 67% 30.28 in 10.0 mi East 2.3 mph - N/A   Clear
2:44 AM 53.6 °F - 46.4 °F 77% 30.28 in 10.0 mi ENE 5.8 mph - N/A   Clear
2:52 AM 51.8 °F - 46.4 °F 82% 30.28 in 10.0 mi NE 5.8 mph - N/A   Clear
3:47 AM 51.8 °F - 46.4 °F 82% 29.80 in 10.0 mi ENE 4.6 mph - N/A   Clear
4:46 AM 50.0 °F - 46.4 °F 87% 30.26 in 10.0 mi Calm Calm - N/A   Clear
5:46 AM 50.0 °F - 48.2 °F 94% 30.27 in 8.0 mi NE 4.6 mph - N/A   Clear
6:51 AM 48.2 °F - 44.6 °F 87% 29.81 in 6.0 mi NNE 4.6 mph - N/A   Scattered Clouds
7:22 AM 48.2 °F - 42.8 °F 82% 30.28 in 5.0 mi NE 4.6 mph - N/A   Clear
7:45 AM 46.4 °F 43.5 °F 42.8 °F 87% 30.29 in 5.0 mi NE 5.8 mph - N/A   Clear
8:22 AM 48.2 °F - 44.6 °F 87% 30.30 in 5.0 mi NE 3.5 mph - N/A   Clear
8:48 AM 50.0 °F - 46.4 °F 87% 30.31 in 5.0 mi NE 4.6 mph - N/A   Clear
9:01 AM 53.6 °F - 46.4 °F 77% 30.31 in 5.0 mi ENE 2.3 mph - N/A   Clear
9:20 AM 55.4 °F - 48.2 °F 77% 30.31 in 4.0 mi NE 3.5 mph - N/A   Clear
9:43 AM 57.2 °F - 48.2 °F 72% 29.85 in 4.0 mi East 2.3 mph - N/A   Clear
10:02 AM 60.8 °F - 48.2 °F 63% 30.33 in 4.0 mi East 2.3 mph - N/A   Clear
10:21 AM 60.8 °F - 48.2 °F 63% 30.32 in 4.0 mi NNE 2.3 mph - N/A   Clear
10:43 AM 62.6 °F - 48.2 °F 59% 30.33 in 4.0 mi NNW 2.3 mph - N/A   Partly Cloudy
11:34 AM 66.2 °F - 50.0 °F 56% 30.32 in 5.0 mi SE 3.5 mph - N/A   Partly Cloudy
11:52 AM 66.2 °F - 48.2 °F 52% 30.31 in 5.0 mi SE 2.3 mph - N/A   Partly Cloudy
12:20 PM 69.8 °F - 48.2 °F 46% 30.30 in 6.0 mi South 4.6 mph - N/A   Partly Cloudy
12:51 PM 71.6 °F - 46.4 °F 41% 29.76 in 7.0 mi Calm Calm - N/A   Partly Cloudy
1:44 PM 73.4 °F - 41.0 °F 31% 30.24 in 8.0 mi NNE 4.6 mph - N/A   Partly Cloudy
2:45 PM 77.0 °F - 41.0 °F 28% 30.20 in 8.0 mi Calm Calm - N/A   Scattered Clouds
2:48 PM 77.0 °F - 39.2 °F 26% 30.20 in 8.0 mi Calm Calm - N/A   Scattered Clouds
3:44 PM 78.8 °F - 37.4 °F 23% 29.66 in 8.0 mi East 9.2 mph - N/A   Partly Cloudy
4:54 PM 77.0 °F - 37.4 °F 24% 30.16 in 9.0 mi WNW 5.8 mph - N/A   Scattered Clouds
5:51 PM 77.0 °F - 37.4 °F 24% 30.16 in 9.0 mi North 5.8 mph - N/A   Scattered Clouds
6:43 PM 75.2 °F - 50.0 °F 41% 29.68 in 9.0 mi ESE 8.1 mph - N/A   Scattered Clouds
6:57 PM 73.4 °F - 50.0 °F 44% 30.19 in 9.0 mi ENE 9.2 mph 20.7 mph N/A   Scattered Clouds
7:44 PM 71.6 °F - 50.0 °F 46% 30.21 in 10.0 mi NNE 16.1 mph 27.6 mph N/A   Scattered Clouds
8:24 PM 68.0 °F - 48.2 °F 49% 30.24 in 12.0 mi NE 11.5 mph 23.0 mph N/A   Mostly Cloudy
8:43 PM 68.0 °F - 48.2 °F 49% 30.25 in 12.0 mi ENE 11.5 mph - N/A   Mostly Cloudy
9:41 PM 66.2 °F - 48.2 °F 52% 29.79 in 12.0 mi NE 8.1 mph - N/A   Scattered Clouds
10:53 PM 64.4 °F - 48.2 °F 56% 30.28 in 15.0 mi NE 5.8 mph - N/A   Scattered Clouds
11:41 PM 64.4 °F - 46.4 °F 52% 30.28 in 15.0 mi North 3.5 mph - N/A   Scattered Clouds